| time (UTC) | temp F | wind direction | speed MPH | gust MPH | rain 1hr in | rain 24hr in | rain mn in | humidity % | barometer mb |
| 20260508130114 | 57 | 151 | 3.0 | 4.0 | 0.00 | 0.01 | 0.00 | 36 | 1017.7 |
| 20260508123114 | 55 | 133 | 3.0 | 5.0 | 0.00 | 0.01 | 0.00 | 40 | 1017.7 |
| 20260508120114 | 55 | 116 | 3.0 | 6.0 | 0.00 | 0.01 | 0.00 | 39 | 1017.7 |
| 20260508113114 | 55 | 134 | 4.0 | 6.0 | 0.00 | 0.01 | 0.00 | 39 | 1017.7 |
| 20260508110115 | 55 | 85 | 0.0 | 4.0 | 0.00 | 0.01 | 0.00 | 38 | 1017.7 |
| 20260508103114 | 56 | 350 | 5.0 | 6.0 | 0.00 | 0.01 | 0.00 | 36 | 1017.7 |
| 20260508093114 | 56 | 219 | 3.0 | 4.0 | 0.00 | 0.01 | 0.00 | 39 | 1017.7 |
| 20260508090114 | 56 | 122 | 2.0 | 4.0 | 0.00 | 0.01 | 0.00 | 44 | 1017.7 |
| 20260508083114 | 53 | 98 | 0.0 | 4.0 | 0.00 | 0.01 | 0.00 | 47 | 1017.8 |
| 20260508080114 | 51 | 207 | 5.0 | 6.0 | 0.00 | 0.01 | 0.00 | 53 | 1017.8 |
| 20260508073114 | 50 | 176 | 4.0 | 5.0 | 0.00 | 0.01 | 0.00 | 57 | 1017.8 |
| 20260508070114 | 47 | 129 | 3.0 | 4.0 | 0.00 | 0.01 | 0.00 | 72 | 1017.9 |
| 20260508063114 | 45 | 47 | 0.0 | 4.0 | 0.00 | 0.01 | 0.00 | 79 | 1017.9 |
| 20260508060133 | 43 | 95 | 2.0 | 5.0 | 0.00 | 0.01 | 0.00 | 79 | 1017.0 |
| 20260508053114 | 42 | 90 | 2.0 | 6.0 | 0.00 | 0.03 | 0.00 | 78 | 1017.0 |
| 20260508043114 | 40 | 56 | 2.0 | 4.0 | 0.00 | 0.03 | 0.00 | 77 | 1017.1 |
| 20260508040114 | 40 | 44 | 3.0 | 5.0 | 0.00 | 0.03 | 0.00 | 76 | 1017.1 |
| 20260508030114 | 40 | 218 | 0.0 | 0.0 | 0.00 | 0.05 | 0.00 | 74 | 1017.1 |
| 20260508023114 | 40 | 218 | 0.0 | 0.0 | 0.00 | 0.09 | 0.00 | 73 | 1017.1 |
| 20260508020114 | 41 | 218 | 0.0 | 0.0 | 0.00 | 0.09 | 0.00 | 72 | 1017.0 |
| 20260508013114 | 41 | 296 | 0.0 | 0.0 | 0.00 | 0.14 | 0.00 | 72 | 1017.0 |
| 20260508010114 | 42 | 296 | 0.0 | 0.0 | 0.00 | 0.14 | 0.00 | 71 | 1017.0 |
| 20260508003114 | 42 | 296 | 0.0 | 0.0 | 0.00 | 0.16 | 0.00 | 71 | 1017.0 |
| 20260507233114 | 44 | 296 | 0.0 | 0.0 | 0.00 | 0.19 | 0.00 | 70 | 1017.0 |
| 20260507230114 | 44 | 287 | 0.0 | 0.0 | 0.00 | 0.19 | 0.00 | 69 | 1017.0 |
| 20260507223114 | 45 | 287 | 0.0 | 0.0 | 0.00 | 0.21 | 0.00 | 69 | 1016.9 |
| 20260507220114 | 46 | 287 | 0.0 | 0.0 | 0.00 | 0.21 | 0.00 | 69 | 1016.9 |
| 20260507213114 | 47 | 287 | 0.0 | 0.0 | 0.00 | 0.24 | 0.24 | 68 | 1015.9 |
| 20260507210114 | 47 | 287 | 0.0 | 0.0 | 0.00 | 0.24 | 0.24 | 68 | 1015.9 |
| 20260507203114 | 48 | 287 | 0.0 | 0.0 | 0.00 | 0.30 | 0.24 | 67 | 1015.9 |
| 20260507200113 | 48 | 287 | 0.0 | 0.0 | 0.00 | 0.30 | 0.24 | 67 | 1015.8 |
| 20260507193114 | 49 | 259 | 0.0 | 0.0 | 0.00 | 0.48 | 0.24 | 65 | 1015.8 |
| 20260507190114 | 49 | 277 | 0.0 | 0.0 | 0.00 | 0.48 | 0.24 | 64 | 1015.8 |
| 20260507183113 | 49 | 246 | 0.0 | 0.0 | 0.00 | 0.53 | 0.24 | 62 | 1014.8 |
| 20260507173114 | 49 | 17 | 0.0 | 0.0 | 0.00 | 0.58 | 0.24 | 61 | 1014.8 |
| 20260507170132 | 49 | 17 | 0.0 | 0.0 | 0.00 | 0.58 | 0.24 | 61 | 1014.8 |
| 20260507163113 | 49 | 17 | 0.0 | 0.0 | 0.00 | 0.62 | 0.24 | 61 | 1014.8 |
| 20260507160113 | 49 | 335 | 0.0 | 0.0 | 0.00 | 0.62 | 0.24 | 61 | 1014.8 |
| 20260507153113 | 49 | 360 | 0.0 | 4.0 | 0.00 | 0.64 | 0.24 | 59 | 1014.8 |
| 20260507150113 | 50 | 59 | 0.0 | 0.0 | 0.01 | 0.64 | 0.24 | 59 | 1014.8 |
| 20260507143113 | 50 | 67 | 0.0 | 0.0 | 0.01 | 0.72 | 0.24 | 63 | 1013.8 |
| 20260507140113 | 49 | 360 | 0.0 | 0.0 | 0.00 | 0.71 | 0.23 | 64 | 1014.8 |
| 20260507133113 | 48 | 353 | 0.0 | 2.0 | 0.00 | 0.79 | 0.23 | 65 | 1013.8 |